TimeEDT,TemperatureF,Dew PointF,Humidity,Sea Level PressureIn,VisibilityMPH,Wind Direction,Wind SpeedMPH,Gust SpeedMPH,PrecipitationIn,Events,Conditions,WindDirDegrees,DateUTC
12:15 AM,55.0,35.2,47,30.15,10.0,NNW,10.4,19.6,N/A,,Clear,340,2012-10-11 04:15:00
12:35 AM,55.8,34.5,45,30.15,10.0,NNW,11.5,-,N/A,,Clear,340,2012-10-11 04:35:00
12:55 AM,55.0,34.0,45,30.17,10.0,North,4.6,-,N/A,,Clear,10,2012-10-11 04:55:00
1:15 AM,54.5,34.5,47,30.17,10.0,North,6.9,-,N/A,,Clear,10,2012-10-11 05:15:00
1:35 AM,54.3,34.7,48,30.17,10.0,NNW,13.8,-,N/A,,Clear,340,2012-10-11 05:35:00
2:55 AM,47.3,36.1,65,30.19,10.0,NNW,6.9,-,N/A,,Clear,330,2012-10-11 06:55:00
3:15 AM,48.6,35.8,61,30.19,10.0,NNW,11.5,-,N/A,,Clear,340,2012-10-11 07:15:00
3:55 AM,48.4,34.5,59,30.21,10.0,NW,3.5,-,N/A,,Clear,310,2012-10-11 07:55:00
4:15 AM,46.4,35.2,65,30.22,10.0,NE,6.9,-,N/A,,Clear,40,2012-10-11 08:15:00
4:35 AM,49.8,34.9,56,30.22,10.0,NNW,12.7,-,N/A,,Clear,340,2012-10-11 08:35:00
4:55 AM,48.4,34.3,58,30.24,10.0,NNW,9.2,-,N/A,,Clear,330,2012-10-11 08:55:00
5:15 AM,48.4,33.8,57,30.25,10.0,NNW,9.2,-,N/A,,Clear,330,2012-10-11 09:15:00
5:35 AM,48.4,33.1,56,30.26,10.0,North,8.1,-,N/A,,Clear,360,2012-10-11 09:35:00
5:55 AM,47.7,32.9,57,30.27,10.0,NNW,8.1,-,N/A,,Clear,340,2012-10-11 09:55:00
6:15 AM,47.1,32.0,56,30.28,10.0,NNW,5.8,-,N/A,,Clear,340,2012-10-11 10:15:00
6:35 AM,46.6,31.8,56,30.28,10.0,NNW,5.8,-,N/A,,Clear,340,2012-10-11 10:35:00
6:55 AM,45.5,32.0,59,30.30,10.0,Calm,Calm,-,N/A,,Clear,0,2012-10-11 10:55:00
7:15 AM,44.8,32.4,62,30.30,10.0,Calm,Calm,-,N/A,,Clear,0,2012-10-11 11:15:00
7:35 AM,45.5,31.3,58,30.31,10.0,NNW,8.1,-,N/A,,Clear,340,2012-10-11 11:35:00
7:55 AM,46.6,31.8,56,30.32,10.0,NNW,8.1,-,N/A,,Clear,340,2012-10-11 11:55:00
8:15 AM,48.4,31.8,53,30.33,10.0,NNW,10.4,-,N/A,,Clear,330,2012-10-11 12:15:00
8:35 AM,50.0,30.9,48,30.33,10.0,NW,10.4,-,N/A,,Clear,320,2012-10-11 12:35:00
8:55 AM,50.9,30.0,45,30.34,10.0,NW,11.5,-,N/A,,Clear,320,2012-10-11 12:55:00
9:15 AM,52.0,28.9,41,30.35,10.0,NW,11.5,16.1,N/A,,Clear,320,2012-10-11 13:15:00
9:35 AM,52.7,27.7,38,30.35,10.0,North,11.5,17.3,N/A,,Clear,350,2012-10-11 13:35:00
9:55 AM,53.6,27.7,37,30.35,10.0,NNW,16.1,19.6,N/A,,Clear,340,2012-10-11 13:55:00
10:15 AM,54.3,28.0,36,30.36,10.0,NNW,9.2,-,N/A,,Clear,340,2012-10-11 14:15:00
10:35 AM,55.2,28.0,35,30.36,10.0,NNW,11.5,18.4,N/A,,Clear,330,2012-10-11 14:35:00
10:55 AM,55.4,27.1,34,30.36,10.0,North,11.5,18.4,N/A,,Clear,350,2012-10-11 14:55:00
11:15 AM,55.6,27.1,34,30.35,10.0,North,4.6,-,N/A,,Clear,350,2012-10-11 15:15:00
11:35 AM,56.8,27.5,33,30.35,10.0,NW,4.6,-,N/A,,Clear,310,2012-10-11 15:35:00
11:55 AM,57.2,26.4,31,30.34,10.0,NNW,6.9,-,N/A,,Clear,330,2012-10-11 15:55:00
12:15 PM,57.9,26.6,30,30.34,10.0,WNW,5.8,-,N/A,,Clear,300,2012-10-11 16:15:00
12:35 PM,57.7,26.2,30,30.33,10.0,Calm,Calm,-,N/A,,Clear,0,2012-10-11 16:35:00
12:55 PM,58.8,28.0,31,30.32,10.0,SW,3.5,-,N/A,,Clear,220,2012-10-11 16:55:00
1:15 PM,59.4,27.9,30,30.31,10.0,WSW,3.5,-,N/A,,Clear,240,2012-10-11 17:15:00
1:55 PM,60.8,28.2,29,30.29,10.0,SW,3.5,-,N/A,,Clear,230,2012-10-11 17:55:00
2:15 PM,61.3,27.5,28,30.28,10.0,Calm,Calm,-,N/A,,Clear,0,2012-10-11 18:15:00
2:35 PM,62.2,27.3,27,30.27,10.0,SE,4.6,-,N/A,,Clear,140,2012-10-11 18:35:00
2:55 PM,61.7,25.9,26,30.28,10.0,Calm,Calm,-,N/A,,Clear,0,2012-10-11 18:55:00
3:15 PM,63.3,28.4,27,30.27,10.0,South,4.6,-,N/A,,Clear,180,2012-10-11 19:15:00
3:35 PM,62.8,24.8,24,30.26,10.0,South,5.8,-,N/A,,Clear,190,2012-10-11 19:35:00
3:55 PM,63.1,25.2,24,30.26,10.0,SSW,3.5,-,N/A,,Clear,200,2012-10-11 19:55:00
4:15 PM,63.7,25.3,23,30.26,10.0,SSW,4.6,-,N/A,,Clear,200,2012-10-11 20:15:00
4:35 PM,64.4,27.7,25,30.26,10.0,Calm,Calm,-,N/A,,Clear,0,2012-10-11 20:35:00
4:55 PM,64.4,27.1,24,30.25,10.0,SSW,3.5,-,N/A,,Clear,210,2012-10-11 20:55:00
5:15 PM,63.7,29.3,27,30.25,10.0,WSW,4.6,-,N/A,,Clear,240,2012-10-11 21:15:00
5:35 PM,62.6,28.8,28,30.25,10.0,SW,4.6,-,N/A,,Clear,220,2012-10-11 21:35:00
6:15 PM,60.6,32.5,35,30.24,10.0,Calm,Calm,-,N/A,,Clear,0,2012-10-11 22:15:00
6:35 PM,56.1,38.8,52,30.24,10.0,South,3.5,-,N/A,,Clear,170,2012-10-11 22:35:00
6:55 PM,51.1,42.4,72,30.25,10.0,Calm,Calm,-,N/A,,Clear,0,2012-10-11 22:55:00
7:35 PM,47.3,46.0,95,30.25,10.0,Calm,Calm,-,N/A,,Clear,0,2012-10-11 23:35:00
7:55 PM,47.3,-9999,N/A,30.25,10.0,Calm,Calm,-,N/A,,Clear,0,2012-10-11 23:55:00
8:15 PM,45.3,-9999,N/A,30.25,10.0,Calm,Calm,-,N/A,,Clear,0,2012-10-12 00:15:00
8:35 PM,45.3,-9999,N/A,30.25,10.0,Calm,Calm,-,N/A,,Clear,0,2012-10-12 00:35:00
9:15 PM,43.7,-9999,N/A,30.25,10.0,Calm,Calm,-,N/A,,Clear,0,2012-10-12 01:15:00
9:35 PM,43.3,-9999,N/A,30.24,10.0,Calm,Calm,-,N/A,,Clear,0,2012-10-12 01:35:00
9:55 PM,43.0,-9999,N/A,30.25,10.0,Calm,Calm,-,N/A,,Clear,0,2012-10-12 01:55:00
10:15 PM,41.9,-9999,N/A,30.24,10.0,Calm,Calm,-,N/A,,Clear,0,2012-10-12 02:15:00
10:35 PM,41.4,-9999,N/A,30.24,10.0,Calm,Calm,-,N/A,,Clear,0,2012-10-12 02:35:00
10:55 PM,41.5,-9999,N/A,30.24,10.0,Calm,Calm,-,N/A,,Clear,0,2012-10-12 02:55:00
11:55 PM,40.1,-9999,N/A,30.23,10.0,Calm,Calm,-,N/A,,Clear,0,2012-10-12 03:55:00